This demonstration page uses our WeatherBlox Daily Observations layout. Learn more.

Left ArrowRight Arrow

39.29038, -76.61219

Hourly Observations for March 17, 2015

Temp ( °F °C ) Dew Point ( °F °C ) Humidity (%) Winds ( mph kmh ) Pressure ( in mb ) Visibility ( mi km ) Precip ( " mm )
12:54 am 00:54 undefined 51 10.6 37 2.8 59 59 undefined N/A 29.82 1010 N/A 0.00 0.00
1:54 am 01:54 undefined 49 9.4 38 3.3 66 66 undefined N/A 29.78 1009 N/A 0.00 0.00
2:54 am 02:54 undefined 47 8.3 38 3.3 71 71 undefined N/A 29.74 1007 N/A 0.00 0.00
3:54 am 03:54 undefined 48 8.9 38 3.3 68 68 undefined N/A 29.73 1007 N/A 0.00 0.00
4:54 am 04:54 undefined 47 8.3 38 3.3 71 71 undefined N/A 29.70 1006 N/A 0.00 0.00
5:54 am 05:54 undefined 48 8.9 37 2.8 66 66 undefined N/A 29.67 1005 N/A 0.00 0.00
6:54 am 06:54 undefined 49 9.4 37 2.8 64 64 undefined N/A 29.66 1005 N/A 0.00 0.00
7:54 am 07:54 undefined 50 10 38 3.3 63 63 undefined N/A 29.65 1004 N/A 0.00 0.00
8:54 am 08:54 undefined 53 11.7 38 3.3 57 57 undefined N/A 29.64 1004 N/A 0.00 0.00
9:54 am 09:54 undefined 62 16.7 42 5.6 48 48 undefined N/A 29.65 1004 N/A 0.00 0.00
10:54 am 10:54 undefined 67 19.4 45 7.2 45 45 undefined N/A 29.66 1005 N/A 0.00 0.00
11:54 am 11:54 undefined 69 20.6 43 6.1 39 39 undefined N/A 29.65 1004 N/A 0.00 0.00
12:54 pm 12:54 undefined 67 19.4 42 5.6 41 41 undefined N/A 29.67 1005 N/A 0.00 0.00
1:54 pm 13:54 undefined 66 18.9 40 4.4 39 39 undefined N/A 29.68 1005 N/A 0.00 0.00
2:54 pm 14:54 undefined 65 18.3 34 1.1 32 32 undefined N/A 29.70 1006 N/A 0.00 0.00
3:54 pm 15:54 undefined 63 17.2 30 -1.1 29 29 undefined N/A 29.72 1007 N/A 0.00 0.00
4:54 pm 16:54 undefined 59 15 24 -4.4 26 26 undefined N/A 29.78 1008 N/A 0.00 0.00
5:54 pm 17:54 undefined 55 12.8 22 -5.6 28 28 undefined N/A 29.83 1010 N/A 0.00 0.00
6:54 pm 18:54 undefined 51 10.6 22 -5.6 32 32 undefined N/A 29.88 1012 N/A 0.00 0.00
7:54 pm 19:54 undefined 49 9.4 21 -6.1 33 33 undefined N/A 29.92 1013 N/A 0.00 0.00
8:54 pm 20:54 undefined 46 7.8 17 -8.3 31 31 undefined N/A 29.97 1015 N/A 0.00 0.00
10:54 pm 22:54 undefined 42 5.6 11 -11.7 28 28 undefined N/A 30.04 1017 N/A 0.00 0.00
11:54 pm 23:54 undefined 40 4.4 13 -10.6 33 33 undefined N/A 30.07 1018 N/A 0.00 0.00

Powered by AerisWeather